Berthold, ND (58718)

11:13 PM CDT on August 28, 2015 (GMT -0500)
Minot Air Force Base | | Change Station
CLOSE
Current Station
Airport
Location: Minot AFB,
Elevation: 1667 ft
Nearby Weather Stations
Active Advisory: Fire Weather Watch

Elev 1667 ft 48.42 °N, 101.36 °W | Updated 15 minutes ago

Mostly Cloudy
Mostly Cloudy
67 °F
Feels Like 67 °F
N
0
Wind Variable Wind from North

Today
High -- | Low -- °F
--% Chance of Precip.
Yesterday
High -- | Low -- °F
Precip. -- in
6:59 AM 8:37 PM
Waxing Gibbous, 99% visible
Pressure 29.87 in
Visibility 10.0 miles
Clouds Clear
Dew Point 64 °F
Humidity 93%
Rainfall 0.00 in
Snow Depth Not available.
UV 0 out of 12
Pollen 10.20 out of 12
Air Quality Not available.
Flu Activity Not available.
METAR KMIB 290358Z AUTO 00000KT 10SM CLR 19/18 A2987 RMK AO2 SLP114 T01920180 $
Pressure 29.87 in
Visibility 10.0 miles
Clouds Clear
Dew Point 64 °F
Humidity 93%
Rainfall 0.00 in
Snow Depth Not available.
UV 0 out of 12
Pollen 10.20 out of 12
Air Quality Not available.
Flu Activity Not available.
METAR KMIB 290358Z AUTO 00000KT 10SM CLR 19/18 A2987 RMK AO2 SLP114 T01920180 $

10-Day Weather Forecast

×

Almanac

Astronomy

Aug. 28, 2015 Rise Set
Actual Time
Civil Twilight
Nautical Twilight
Astronomical Twilight
Moon
Length of Visible Light
Length of Day
Tomorrow will be .
, % of the Moon is Illuminated

Today's Extremes

State Highs State Lows

Community

WunderPhotos

Upload Photos

1,850,611 photos uploaded!

WunderBlogs® & News

Nearby

Air Quality

  Air Quality AQ Index Pollutant
Not available.

Snow Depth

Station Depth Elevation

Earthquake Activity

City Distance Mag. Time & Date
Minimum magnitude displayed is 2.5.

Coastal Water Temperatures

Place Temperature

Stations

Nearby Weather Stations

Station Location Temp. Windchill Dew Point Humidity Wind Precip. Elev Updated Type
                   
Fire Weather Watch
Statement as of 5:38 PM MDT on August 28, 2015

... Fire Weather Watch remains in effect from Saturday morning
through Saturday evening for gust south winds and low relative
humidity for western North Dakota...

* affected area... fire weather zones 001... 002... 009... 010...
011... 017... 018... 019... 020... 021... 031... 032... 033... 034...
040... 041... 042... 043... 044 and 045.

* Wind... south wind 15 to 25 mph.

* Timing... late Saturday morning through evening.

* Humidity... as low as 15 percent.

* Temperatures... 93 to 99.

* Impacts... any fires that develop could spread rapidly.
Outdoor burning is not recommended.

Precautionary/preparedness actions...

A Fire Weather Watch means that critical fire weather conditions
are forecast to occur. Listen for later forecasts and possible
red flag warnings.



Ayd